IRIDIUM 106 1 41917U 17003A 26119.04822107 .00000048 00000+0 10045-4 0 9991 2 41917 86.3926 109.1028 0002611 83.6278 276.5215 14.34217632486169 IRIDIUM 103 1 41918U 17003B 26119.03553459 .00000014 00000+0 -20851-5 0 9993 2 41918 86.3929 109.0081 0002240 96.3659 263.7792 14.34217400486186 IRIDIUM 109 1 41919U 17003C 26119.25118271 .00000016 00000+0 -14409-5 0 9991 2 41919 86.3931 108.9766 0002183 90.3839 269.7607 14.34217390486187 IRIDIUM 102 1 41920U 17003D 26119.21947011 .00000042 00000+0 80390-5 0 9991 2 41920 86.3926 108.9143 0002262 87.3007 272.8448 14.34217774486266 IRIDIUM 105 1 41921U 17003E 26119.24863000 .00000164 00000+0 51208-4 0 9990 2 41921 86.3946 77.3283 0002291 87.4148 272.7310 14.34398746488125 IRIDIUM 104 1 41922U 17003F 26119.23215443 .00000014 00000+0 -19842-5 0 9996 2 41922 86.3930 108.9510 0002099 96.0206 264.1229 14.34217441486258 IRIDIUM 114 1 41923U 17003G 26119.02919255 .00000055 00000+0 12588-4 0 9999 2 41923 86.3927 109.0192 0002269 93.5674 266.5782 14.34217884486209 IRIDIUM 108 1 41924U 17003H 26119.12725087 .00000013 00000+0 -23380-5 0 9997 2 41924 86.3942 77.2718 0002095 82.6096 277.5338 14.34217441488076 IRIDIUM 112 1 41925U 17003J 26119.22581273 .00000091 00000+0 25556-4 0 9997 2 41925 86.3923 108.7812 0002196 91.2500 268.8948 14.34218094486252 IRIDIUM 111 1 41926U 17003K 26119.21312731 .00000080 00000+0 21584-4 0 9993 2 41926 86.3925 108.8560 0002326 90.7897 269.3565 14.34218144486239 IRIDIUM 113 1 42803U 17039A 26119.12332340 .00000043 00000+0 83037-5 0 9996 2 42803 86.3989 342.6945 0002018 92.1233 268.0194 14.34217807464153 IRIDIUM 123 1 42804U 17039B 26119.23457139 .00000076 00000+0 20112-4 0 9993 2 42804 86.4017 14.0950 0002349 86.1504 273.9960 14.34217636462934 IRIDIUM 120 1 42805U 17039C 26119.11698124 -.00000027 00000+0 -16753-4 0 9996 2 42805 86.3974 342.4857 0002103 82.3181 277.8254 14.34217308464147 IRIDIUM 115 1 42806U 17039D 26119.17099996 .00000283 00000+0 78016-4 0 9997 2 42806 86.4517 342.5854 0002479 85.5001 274.6483 14.43277574467190 IRIDIUM 118 1 42807U 17039E 26119.19651560 .00000065 00000+0 16140-4 0 9999 2 42807 86.4014 14.1092 0002180 86.2141 273.9304 14.34217919462928 IRIDIUM 117 1 42808U 17039F 26119.21554245 .00000109 00000+0 31709-4 0 9992 2 42808 86.4013 14.0593 0002336 87.4023 272.7440 14.34218574462957 IRIDIUM 126 1 42809U 17039G 26119.24091399 .00000015 00000+0 -17153-5 0 9997 2 42809 86.4015 14.0990 0002219 89.0844 271.0606 14.34217632462938 IRIDIUM 124 1 42810U 17039H 26119.24351430 .00000110 00000+0 26754-4 0 9995 2 42810 86.4455 310.8390 0002223 89.2511 270.8944 14.43281721468058 IRIDIUM 128 1 42811U 17039J 26119.23165192 .00000057 00000+0 13396-4 0 9991 2 42811 86.3991 45.6082 0002372 80.4261 279.7202 14.34217907462968 IRIDIUM 121 1 42812U 17039K 26119.19018857 .00000260 00000+0 85897-4 0 9993 2 42812 86.4015 14.1476 0002203 82.1624 277.9822 14.34220880462805 IRIDIUM 133 1 42955U 17061A 26119.19359603 .00000044 00000+0 87113-5 0 9997 2 42955 86.3991 45.7406 0002260 84.9449 275.2005 14.34217944447754 IRIDIUM 100 1 42956U 17061B 26119.18725340 .00000079 00000+0 21154-4 0 9992 2 42956 86.3990 45.6629 0002246 84.2450 275.9002 14.34217605447757 IRIDIUM 122 1 42957U 17061C 26119.22530932 .00000029 00000+0 33068-5 0 9992 2 42957 86.3990 45.6471 0002281 87.1486 272.9971 14.34217781447761 IRIDIUM 129 1 42958U 17061D 26119.25067863 .00000047 00000+0 98039-5 0 9993 2 42958 86.3992 45.7031 0001949 88.1722 271.9697 14.34217949447783 IRIDIUM 119 1 42959U 17061E 26119.21896697 .00000009 00000+0 -37426-5 0 9997 2 42959 86.3992 45.7119 0002237 88.5728 271.5724 14.34217586447797 IRIDIUM 107 1 42960U 17061F 26119.23799515 -.00000043 00000+0 -22429-4 0 9997 2 42960 86.3988 45.7251 0002367 86.6087 273.5380 14.34217380447806 IRIDIUM 132 1 42961U 17061G 26119.24433747 .00000003 00000+0 -59359-5 0 9999 2 42961 86.3989 45.7023 0002165 84.9303 275.2140 14.34217467447802 IRIDIUM 136 1 42962U 17061H 26119.20628173 .00000025 00000+0 20198-5 0 9997 2 42962 86.3992 45.7245 0002281 87.4535 272.6922 14.34217752447814 IRIDIUM 139 1 42963U 17061J 26119.21262424 .00000004 00000+0 -55961-5 0 9996 2 42963 86.3989 45.7831 0002206 83.0108 277.1339 14.34217520447823 IRIDIUM 125 1 42964U 17061K 26119.19993941 .00000009 00000+0 -39155-5 0 9991 2 42964 86.3992 45.8486 0002350 97.0796 263.0667 14.34217543447837 IRIDIUM 135 1 43070U 17083A 26119.17406433 -.00000025 00000+0 -15816-4 0 9993 2 43070 86.3977 342.5127 0002039 86.4524 273.6905 14.34217458437121 IRIDIUM 138 1 43071U 17083B 26119.12966612 .00000038 00000+0 65030-5 0 9995 2 43071 86.3995 342.2197 0002041 95.3057 264.8371 14.34217755437106 IRIDIUM 116 1 43072U 17083C 26119.16773582 .00000227 00000+0 73866-4 0 9997 2 43072 86.3982 342.5024 0002342 79.3696 280.7763 14.34211822437145 IRIDIUM 130 1 43073U 17083D 26119.13600924 .00000022 00000+0 77003-6 0 9996 2 43073 86.3986 342.7856 0002295 84.3672 275.7786 14.34217695437088 IRIDIUM 151 1 43074U 17083E 26119.11063844 .00000010 00000+0 -33683-5 0 9992 2 43074 86.3978 342.5825 0002015 84.0553 276.0873 14.34217622437103 IRIDIUM 134 1 43075U 17083F 26119.14869435 .00000068 00000+0 17072-4 0 9991 2 43075 86.3986 342.5742 0002256 86.0667 274.0787 14.34217820437074 IRIDIUM 137 1 43076U 17083G 26119.16137881 -.00000038 00000+0 -20693-4 0 9999 2 43076 86.3980 342.6604 0001930 71.6159 288.5247 14.34217240437146 IRIDIUM 141 1 43077U 17083H 26119.15503509 .00000323 00000+0 10827-3 0 9995 2 43077 86.3982 342.4970 0002088 87.5740 272.5695 14.34216183437145 IRIDIUM 153 1 43078U 17083J 26119.24675197 .00000009 00000+0 -37555-5 0 9990 2 43078 86.3932 310.9475 0002055 95.5397 264.6033 14.34217618438268 IRIDIUM 131 1 43079U 17083K 26119.14235135 .00000066 00000+0 16614-4 0 9998 2 43079 86.3988 342.6849 0002065 86.4218 273.7214 14.34217860437078 IRIDIUM 144 1 43249U 18030A 26119.25309823 .00000080 00000+0 21639-4 0 9997 2 43249 86.3931 310.8753 0002208 86.0616 274.0832 14.34217704423121 IRIDIUM 149 1 43250U 18030B 26119.05013493 .00000076 00000+0 20052-4 0 9995 2 43250 86.3931 310.9278 0002074 90.9252 269.2181 14.34217770423112 IRIDIUM 157 1 43251U 18030C 26119.27846539 .00000082 00000+0 22183-4 0 9999 2 43251 86.3933 310.8843 0002164 89.2647 270.8796 14.34218181423129 IRIDIUM 140 1 43252U 18030D 26119.22772700 .00000086 00000+0 23570-4 0 9998 2 43252 86.3933 310.9183 0002219 88.8740 271.2710 14.34217976423175 IRIDIUM 145 1 43253U 18030E 26119.28480839 .00000074 00000+0 19205-4 0 9991 2 43253 86.3932 310.8667 0002319 81.8128 278.3331 14.34218111423118 IRIDIUM 146 1 43254U 18030F 26119.26578027 .00000075 00000+0 19885-4 0 9992 2 43254 86.3932 310.8871 0002201 86.5362 273.6085 14.34218146423121 IRIDIUM 148 1 43255U 18030G 26119.02478034 .00000074 00000+0 19416-4 0 9993 2 43255 86.3935 311.0304 0002072 86.9118 273.2315 14.34215917423123 IRIDIUM 142 1 43256U 18030H 26119.27214241 .00000076 00000+0 20008-4 0 9990 2 43256 86.3930 310.8176 0002263 84.0787 276.0666 14.34215472423122 IRIDIUM 150 1 43257U 18030J 26119.24040920 .00000018 00000+0 -73222-6 0 9994 2 43257 86.3931 310.9455 0002068 88.0797 272.0636 14.34217697423149 IRIDIUM 143 1 43258U 18030K 26119.29115105 -.00000041 00000+0 -21673-4 0 9996 2 43258 86.3935 311.0149 0002127 85.9611 274.1828 14.34217156423082 IRIDIUM 161 1 43478U 18047C 26119.22141911 .00000188 00000+0 49837-4 0 9997 2 43478 86.4446 108.9484 0002088 91.8087 268.3353 14.43278104418079 IRIDIUM 152 1 43479U 18047D 26119.05456266 .00000061 00000+0 14733-4 0 9998 2 43479 86.3921 108.8789 0002233 91.8172 268.3280 14.34217976415448 IRIDIUM 147 1 43480U 18047E 26119.20044246 .00000047 00000+0 95846-5 0 9997 2 43480 86.3923 108.8222 0002323 86.2940 273.8521 14.34217771415469 IRIDIUM 110 1 43481U 18047F 26119.06724733 -.00000035 00000+0 -19412-4 0 9991 2 43481 86.3930 108.9687 0001881 96.2798 263.8612 14.34217035415434 IRIDIUM 162 1 43482U 18047G 26119.21511525 .00000189 00000+0 50182-4 0 9999 2 43482 86.4446 108.8427 0002420 91.0776 269.0702 14.43282319418065 IRIDIUM 160 1 43569U 18061A 26119.29215716 .00000122 00000+0 36552-4 0 9994 2 43569 86.3946 77.2380 0002117 86.4546 273.6892 14.34218339406360 IRIDIUM 166 1 43570U 18061B 26119.24777760 .00000272 00000+0 89959-4 0 9998 2 43570 86.3943 77.2075 0002347 83.6506 276.4957 14.34219478406380 IRIDIUM 158 1 43571U 18061C 26119.28581579 .00000020 00000+0 99990-7 0 9994 2 43571 86.3942 77.2015 0002314 89.1159 271.0302 14.34217708406359 IRIDIUM 165 1 43572U 18061D 26119.24141772 .00000014 00000+0 -19874-5 0 9993 2 43572 86.3945 77.2659 0002198 82.9153 277.2292 14.34217463406378 IRIDIUM 155 1 43573U 18061E 26119.27313100 .00000025 00000+0 19763-5 0 9991 2 43573 86.3940 77.1236 0002394 87.2617 272.8853 14.34217543406345 IRIDIUM 154 1 43574U 18061F 26119.25410281 .00000043 00000+0 84079-5 0 9990 2 43574 86.3944 77.2629 0002289 82.4757 277.6698 14.34217669406396 IRIDIUM 163 1 43575U 18061G 26119.23507260 .00000175 00000+0 55394-4 0 9996 2 43575 86.3943 77.1877 0002229 88.9737 271.1714 14.34219223406366 IRIDIUM 156 1 43576U 18061H 26119.27947381 .00000009 00000+0 -37813-5 0 9997 2 43576 86.3942 77.1767 0002322 85.9733 274.1728 14.34217411406366 IRIDIUM 164 1 43577U 18061J 26119.12090830 .00000174 00000+0 54983-4 0 9998 2 43577 86.3942 77.2822 0002244 81.7070 278.4380 14.34217721406388 IRIDIUM 159 1 43578U 18061K 26119.15896390 -.00000038 00000+0 -20556-4 0 9997 2 43578 86.3941 77.2045 0002042 87.3687 272.7742 14.34217240406359 IRIDIUM 180 1 43922U 19002A 26119.22822759 .00000163 00000+0 51242-4 0 9995 2 43922 86.4016 14.0582 0002103 86.4914 273.6523 14.34217152381971 IRIDIUM 176 1 43923U 19002B 26119.22223070 .00000811 00000+0 12467-3 0 9992 2 43923 86.6149 14.0102 0002384 83.7784 276.3705 14.72244505392041 IRIDIUM 168 1 43924U 19002C 26119.22189269 .00000261 00000+0 86162-4 0 9997 2 43924 86.4015 14.1368 0002151 84.8337 275.3104 14.34221448381954 IRIDIUM 173 1 43925U 19002D 26119.20920058 .00000060 00000+0 14474-4 0 9999 2 43925 86.4012 14.0331 0002223 88.2039 271.9412 14.34217946381938 IRIDIUM 169 1 43926U 19002E 26119.21542496 .00000329 00000+0 10106-3 0 9992 2 43926 86.4246 45.6575 0002848 91.0785 269.0740 14.38610114383180 IRIDIUM 172 1 43927U 19002F 26118.99354566 .00000245 00000+0 80412-4 0 9991 2 43927 86.4014 14.1309 0002084 85.5306 274.6127 14.34220675381914 IRIDIUM 175 1 43928U 19002G 26119.26978139 .00000113 00000+0 27354-4 0 9991 2 43928 86.4486 310.9837 0004625 50.8732 309.2880 14.43590814391920 IRIDIUM 171 1 43929U 19002H 26119.25359923 -.00000068 00000+0 -31522-4 0 9998 2 43929 86.4016 14.3229 0002212 82.2233 277.9214 14.34217436381944 IRIDIUM 170 1 43930U 19002J 26119.22841742 .00000727 00000+0 11133-3 0 9997 2 43930 86.6133 14.0116 0002187 84.6279 275.5188 14.72257492392053 IRIDIUM 167 1 43931U 19002K 26119.24725705 .00000002 00000+0 -64767-5 0 9990 2 43931 86.4007 14.0468 0002376 80.9972 279.1492 14.34217525381946 IRIDIUM 181 1 56726U 23068S 26119.29856331 .00000300 00000+0 83147-4 0 9990 2 56726 86.4477 77.2233 0002139 81.5737 278.5707 14.43308678155386 IRIDIUM 177 1 56727U 23068T 26119.17629474 .00001079 00000+0 13848-3 0 9998 2 56727 86.1991 352.0717 0002308 92.6440 267.5045 14.80240901159111 IRIDIUM 174 1 56728U 23068U 26119.21605884 .00000826 00000+0 12717-3 0 9996 2 56728 86.6142 14.1590 0002360 89.5898 270.5589 14.72249504158812 IRIDIUM 178 1 56729U 23068V 26119.23291590 .00002088 00000+0 27133-3 0 9994 2 56729 86.6562 45.8088 0002335 79.0010 281.1474 14.80229467159125 IRIDIUM 179 1 56730U 23068W 26119.22754345 .00000962 00000+0 12322-3 0 9990 2 56730 86.6782 54.6463 0002788 81.4107 278.7431 14.80226787159129